Land O' Lakes, WI

10:36 AM CST on January 22, 2018 (GMT -0600)
Kings Land O'Lakes

Weather History for KLNL - March, 2012

Change the Weather History Date:

Friday, March 16, 2012

  Actual Average (KEGV) Record (KEGV)
Temperature  
Mean Temperature 48 °F -  
Max Temperature 69 °F 34 °F 69 °F (2012)
Min Temperature 28 °F 6 °F -16 °F (1997)
Degree Days  
Heating Degree Days 16    
Moisture  
Dew Point 36 °F    
Average Humidity 65    
Maximum Humidity 93    
Minimum Humidity 40    
Precipitation  
Precipitation 0.00 in - - ()
Sea Level Pressure  
Sea Level Pressure 30.02 in    
Wind  
Wind Speed 3 mph (SSE)    
Max Wind Speed 13 mph    
Max Gust Speed 20 mph    
Visibility 10 miles    
Events      
Averages and records for this station are not official NWS values.
T = Trace of Precipitation, MM = Missing Value Source: NWS Daily Summary

Daily Weather History Graph

Daily Weather History Graph

Search for Another Location

Airport or City:

Trip Planner

Search our weather history database for the weather conditions in past years. The results will help you decide how hot, cold, wet, or windy it might be!

Date:

Astronomy

Mar. 16, 2012 Rise Set
Actual Time 7:06 AM CDT 7:04 PM CDT
Civil Twilight 6:36 AM CDT 7:34 PM CDT
Nautical Twilight 6:01 AM CDT 8:09 PM CDT
Astronomical Twilight 5:26 AM CDT 8:45 PM CDT
Moon 3:42 AM CDT (3/16) 1:07 PM CDT (3/16)
Length of Visible Light 12h 57m
Length of Day
11h 58m
Waning Crescent, 32% of the Moon is Illuminated
Mar 16
Waning Crescent
Mar 22
New
Mar 30
First Quarter
Apr 6
Full
Apr 13
Last Quarter

Hourly Weather History & Observations

Time (CDT) Temp. Dew Point Humidity Pressure Visibility Wind Dir Wind Speed Gust Speed Precip Events Conditions
12:15 AM 32.0 °F 24.8 °F 75% 30.05 in 10.0 mi Calm Calm - N/A   Clear
12:35 AM 30.2 °F 24.8 °F 80% 30.06 in 10.0 mi Calm Calm - N/A   Clear
12:55 AM 30.2 °F 24.8 °F 80% 30.05 in 10.0 mi Calm Calm - N/A   Clear
1:15 AM 30.2 °F 24.8 °F 80% 30.05 in 10.0 mi Calm Calm - N/A   Clear
1:35 AM 30.2 °F 24.8 °F 80% 30.05 in 10.0 mi Calm Calm - N/A   Clear
1:55 AM 30.2 °F 24.8 °F 80% 30.05 in 10.0 mi Calm Calm - N/A   Clear
2:15 AM 30.2 °F 24.8 °F 80% 30.06 in 10.0 mi Calm Calm - N/A   Clear
2:35 AM 30.2 °F 24.8 °F 80% 30.06 in 10.0 mi Calm Calm - N/A   Clear
2:55 AM 30.2 °F 24.8 °F 80% 30.06 in 10.0 mi Calm Calm - N/A   Clear
3:15 AM 30.2 °F 24.8 °F 80% 30.06 in 10.0 mi Calm Calm - N/A   Clear
3:35 AM 30.2 °F 24.8 °F 80% 30.06 in 10.0 mi Calm Calm - N/A   Clear
3:55 AM 28.4 °F 24.8 °F 86% 30.06 in 10.0 mi Calm Calm - N/A   Clear
4:15 AM 28.4 °F 24.8 °F 86% 30.06 in 10.0 mi Calm Calm - N/A   Clear
4:55 AM 28.4 °F 24.8 °F 86% 30.06 in 10.0 mi Calm Calm - N/A   Clear
5:35 AM 28.4 °F 24.8 °F 86% 30.06 in 10.0 mi Calm Calm - N/A   Clear
5:55 AM 28.4 °F 24.8 °F 86% 30.07 in 10.0 mi Calm Calm - N/A   Clear
6:15 AM 28.4 °F 24.8 °F 86% 30.07 in 10.0 mi Calm Calm - N/A   Clear
6:35 AM 28.4 °F 24.8 °F 86% 30.07 in 10.0 mi Calm Calm - N/A   Clear
6:55 AM 28.4 °F 26.6 °F 93% 30.08 in 10.0 mi Calm Calm - N/A   Clear
7:15 AM 28.4 °F 24.8 °F 86% 30.07 in 10.0 mi Calm Calm - N/A   Clear
7:35 AM 28.4 °F 26.6 °F 93% 30.07 in 10.0 mi Calm Calm - N/A   Clear
8:15 AM 32.0 °F 28.4 °F 87% 30.08 in 10.0 mi Calm Calm - N/A   Clear
8:35 AM 33.8 °F 30.2 °F 87% 30.08 in 10.0 mi Calm Calm - N/A   Clear
8:55 AM 35.6 °F 30.2 °F 81% 30.08 in 10.0 mi Calm Calm - N/A   Clear
9:15 AM 39.2 °F 30.2 °F 70% 30.07 in 10.0 mi Calm Calm - N/A   Clear
9:55 AM 48.2 °F 30.2 °F 50% 30.07 in 10.0 mi Calm Calm - N/A   Clear
11:15 AM 59.0 °F 39.2 °F 48% 30.04 in 10.0 mi South 9.2 mph - N/A   Clear
11:35 AM 59.0 °F 41.0 °F 51% 30.03 in 10.0 mi SSE 8.1 mph - N/A   Clear
11:55 AM 62.6 °F 42.8 °F 48% 30.02 in 10.0 mi South 9.2 mph - N/A   Clear
12:15 PM 64.4 °F 44.6 °F 49% 30.02 in 10.0 mi South 6.9 mph - N/A   Clear
12:35 PM 64.4 °F 44.6 °F 49% 30.02 in 10.0 mi South 10.4 mph - N/A   Clear
12:55 PM 64.4 °F 44.6 °F 49% 30.01 in 10.0 mi South 11.5 mph - N/A   Clear
1:15 PM 66.2 °F 44.6 °F 46% 30.01 in 10.0 mi South 11.5 mph - N/A   Clear
1:35 PM 66.2 °F 44.6 °F 46% 30.00 in 10.0 mi South 9.2 mph - N/A   Clear
2:15 PM 68.0 °F 44.6 °F 43% 29.99 in 10.0 mi South 9.2 mph 16.1 mph N/A   Clear
2:35 PM 69.8 °F 44.6 °F 40% 29.98 in 10.0 mi South 12.7 mph 19.6 mph N/A   Clear
2:55 PM 69.8 °F 44.6 °F 40% 29.97 in 10.0 mi SSE 10.4 mph 18.4 mph N/A   Scattered Clouds
3:15 PM 69.8 °F 44.6 °F 40% 29.97 in 10.0 mi SSE 10.4 mph 16.1 mph N/A   Scattered Clouds
3:35 PM 69.8 °F 44.6 °F 40% 29.97 in 10.0 mi South 10.4 mph 19.6 mph N/A   Scattered Clouds
3:55 PM 69.8 °F 44.6 °F 40% 29.96 in 10.0 mi South 10.4 mph 16.1 mph N/A   Scattered Clouds
4:15 PM 69.8 °F 44.6 °F 40% 29.96 in 10.0 mi South 9.2 mph 16.1 mph N/A   Clear
4:35 PM 69.8 °F 46.4 °F 43% 29.96 in 10.0 mi South 8.1 mph 17.3 mph N/A   Clear
4:55 PM 69.8 °F 46.4 °F 43% 29.95 in 10.0 mi South 9.2 mph - N/A   Clear
5:15 PM 68.0 °F 46.4 °F 46% 29.95 in 10.0 mi SSE 9.2 mph - N/A   Clear
5:35 PM 68.0 °F 46.4 °F 46% 29.95 in 10.0 mi South 9.2 mph - N/A   Scattered Clouds
5:55 PM 68.0 °F 46.4 °F 46% 29.95 in 10.0 mi SSE 10.4 mph - N/A   Clear
6:15 PM 66.2 °F 46.4 °F 49% 29.95 in 10.0 mi SSE 6.9 mph - N/A   Clear
6:35 PM 66.2 °F 46.4 °F 49% 29.96 in 10.0 mi SSE 4.6 mph - N/A   Clear
6:55 PM 64.4 °F 46.4 °F 52% 29.96 in 10.0 mi SSE 4.6 mph - N/A   Clear
7:15 PM 62.6 °F 46.4 °F 55% 29.97 in 10.0 mi SE 4.6 mph - N/A   Clear
7:35 PM 60.8 °F 46.4 °F 59% 29.96 in 10.0 mi SE 3.5 mph - N/A   Clear
7:55 PM 57.2 °F 46.4 °F 67% 29.96 in 10.0 mi SE 4.6 mph - N/A   Clear
8:15 PM 57.2 °F 46.4 °F 67% 29.97 in 10.0 mi SE 4.6 mph - N/A   Clear
8:55 PM 57.2 °F 46.4 °F 67% 29.97 in 10.0 mi SSE 4.6 mph - N/A   Clear
9:15 PM 57.2 °F 46.4 °F 67% 29.97 in 10.0 mi SE 4.6 mph - N/A   Clear
9:35 PM 57.2 °F 44.6 °F 63% 29.97 in 10.0 mi SE 5.8 mph - N/A   Clear
9:55 PM 55.4 °F 44.6 °F 67% 29.97 in 10.0 mi SE 5.8 mph - N/A   Clear
10:15 PM 55.4 °F 44.6 °F 67% 29.96 in 10.0 mi SE 6.9 mph - N/A   Clear
10:35 PM 55.4 °F 44.6 °F 67% 29.97 in 10.0 mi SSE 5.8 mph - N/A   Clear
10:55 PM 55.4 °F 44.6 °F 67% 29.97 in 10.0 mi SSE 4.6 mph - N/A Thunderstorm Clear
11:15 PM 55.4 °F 44.6 °F 67% 29.97 in 10.0 mi SSE 4.6 mph - N/A   Clear
11:35 PM 55.4 °F 46.4 °F 72% 29.95 in 10.0 mi SSE 4.6 mph - N/A   Clear
11:55 PM 55.4 °F 46.4 °F 72% 29.95 in 10.0 mi SSE 3.5 mph - N/A   Clear